Decorah, IA

7:31 PM CST on December 06, 2019 (GMT -0600)
Decorah Municipal

Weather History for KDEH - November, 2019

Change the Weather History Date:

Saturday, November 16, 2019

  Actual Average Record
Temperature  
Mean Temperature 34 °F -  
Max Temperature 39 °F 45 °F 73 °F (1953)
Min Temperature 28 °F 26 °F 3 °F (1959)
Degree Days  
Heating Degree Days 32    
Moisture  
Dew Point 30 °F    
Average Humidity 87    
Maximum Humidity 93    
Minimum Humidity 75    
Precipitation  
Precipitation 0.00 in - - ()
Sea Level Pressure  
Sea Level Pressure 30.19 in    
Wind  
Wind Speed 10 mph ()    
Max Wind Speed 15 mph    
Max Gust Speed 23 mph    
Visibility 7.6 miles    
Events      
Averages and records for this station are not official NWS values.
T = Trace of Precipitation, MM = Missing Value Source: Averaged Metar Reports

Daily Weather History Graph

Daily Weather History Graph

Search for Another Location

Airport or City:

Astronomy

Nov. 16, 2019 Rise Set
Actual Time 7:01 AM CST 4:41 PM CST
Civil Twilight 6:30 AM CST 5:12 PM CST
Nautical Twilight 5:55 AM CST 5:47 PM CST
Astronomical Twilight 5:21 AM CST 6:20 PM CST
Moon 8:12 PM CST (11/16) 10:58 AM CST (11/16)
Length of Visible Light 10h 42m
Length of Day
9h 40m
Waning Gibbous, 82% of the Moon is Illuminated
Nov 16
Waning Gibbous
Nov 19
Last Quarter
Nov 26
New
Dec 4
First Quarter
Dec 11
Full

Hourly Weather History & Observations

Time (CST) Temp. Windchill Dew Point Humidity Pressure Visibility Wind Dir Wind Speed Gust Speed Precip Events Conditions
12:15 AM 32.0 °F 24.2 °F 30.2 °F 93% 30.32 in 10.0 mi SE 9.2 mph - N/A   Clear
12:55 AM 32.0 °F 24.2 °F 30.2 °F 93% 30.32 in 10.0 mi SSE 9.2 mph - N/A   Partly Cloudy
1:15 AM 32.0 °F 24.8 °F 28.4 °F 87% 30.32 in 10.0 mi SSE 8.1 mph - N/A   Clear
1:35 AM 32.0 °F 24.8 °F 28.4 °F 87% 30.31 in 10.0 mi SSE 8.1 mph - N/A   Clear
1:55 AM 32.0 °F 25.6 °F 28.4 °F 87% 30.32 in 10.0 mi SSE 6.9 mph 13.8 mph N/A   Clear
2:15 AM 32.0 °F 24.2 °F 28.4 °F 87% 30.32 in 10.0 mi SSE 9.2 mph - N/A   Clear
2:35 AM 30.2 °F 22.6 °F 28.4 °F 93% 30.32 in 10.0 mi SE 8.1 mph - N/A   Clear
2:55 AM 30.2 °F 21.9 °F 28.4 °F 93% 30.32 in 9.0 mi SSE 9.2 mph - N/A   Clear
3:15 AM 30.2 °F 21.9 °F 28.4 °F 93% 30.31 in 10.0 mi SSE 9.2 mph - N/A   Clear
3:35 AM 30.2 °F 21.9 °F 28.4 °F 93% 30.31 in 10.0 mi SSE 9.2 mph - N/A   Clear
3:55 AM 30.2 °F 21.3 °F 28.4 °F 93% 30.30 in 9.0 mi SE 10.4 mph - N/A   Clear
4:55 AM 30.2 °F 22.6 °F 28.4 °F 93% 30.30 in 9.0 mi SSE 8.1 mph 16.1 mph N/A   Clear
5:15 AM 28.4 °F 19.1 °F 26.6 °F 93% 30.30 in 8.0 mi SSE 10.4 mph - N/A   Clear
5:35 AM 28.4 °F 19.1 °F 26.6 °F 93% 30.30 in 8.0 mi SSE 10.4 mph 16.1 mph N/A   Clear
5:55 AM 28.4 °F 19.1 °F 26.6 °F 93% 30.30 in 7.0 mi SSE 10.4 mph 17.3 mph N/A   Clear
6:15 AM 28.4 °F 19.7 °F 26.6 °F 93% 30.30 in 7.0 mi SSE 9.2 mph 16.1 mph N/A   Clear
6:35 AM 28.4 °F 18.5 °F 26.6 °F 93% 30.29 in 7.0 mi SE 11.5 mph 19.6 mph N/A   Clear
6:55 AM 28.4 °F 19.1 °F 26.6 °F 93% 30.29 in 6.0 mi SE 10.4 mph 19.6 mph N/A   Clear
7:15 AM 28.4 °F 19.1 °F 26.6 °F 93% 30.29 in 5.0 mi SSE 10.4 mph 17.3 mph N/A   Clear
7:35 AM 28.4 °F 19.1 °F 26.6 °F 93% 30.29 in 5.0 mi SSE 10.4 mph 16.1 mph N/A   Clear
7:55 AM 28.4 °F 18.5 °F 26.6 °F 93% 30.29 in 5.0 mi SSE 11.5 mph 18.4 mph N/A   Clear
8:15 AM 28.4 °F 19.7 °F 26.6 °F 93% 30.29 in 5.0 mi SSE 9.2 mph - N/A   Clear
8:55 AM 30.2 °F 20.8 °F 28.4 °F 93% 30.29 in 5.0 mi SSE 11.5 mph - N/A   Clear
9:15 AM 32.0 °F 22.5 °F 28.4 °F 87% 30.28 in 5.0 mi SSE 12.7 mph 19.6 mph N/A   Clear
9:35 AM 32.0 °F 22.1 °F 30.2 °F 93% 30.28 in 5.0 mi SSE 13.8 mph - N/A   Clear
9:55 AM 33.8 °F 25.3 °F 30.2 °F 87% 30.27 in 6.0 mi SSE 11.5 mph - N/A   Clear
10:15 AM 33.8 °F 26.4 °F 30.2 °F 87% 30.27 in 5.0 mi SSE 9.2 mph 17.3 mph N/A   Clear
10:35 AM 33.8 °F 27.0 °F 30.2 °F 87% 30.27 in 6.0 mi South 8.1 mph 15.0 mph N/A   Clear
10:55 AM 33.8 °F 26.4 °F 32.0 °F 93% 30.26 in 6.0 mi SSE 9.2 mph 15.0 mph N/A   Clear
11:15 AM 35.6 °F 27.1 °F 32.0 °F 87% 30.25 in 6.0 mi SSE 12.7 mph 21.9 mph N/A   Haze
11:35 AM 35.6 °F 27.5 °F 32.0 °F 87% 30.23 in 7.0 mi SSE 11.5 mph 17.3 mph N/A   Clear
11:55 AM 37.4 °F 30.3 °F 32.0 °F 81% 30.22 in 7.0 mi SSE 10.4 mph 20.7 mph N/A   Clear
12:15 PM 37.4 °F 30.8 °F 32.0 °F 81% 30.21 in 7.0 mi SSE 9.2 mph 18.4 mph N/A   Clear
12:35 PM 37.4 °F 29.3 °F 32.0 °F 81% 30.20 in 7.0 mi SSE 12.7 mph 21.9 mph N/A   Clear
12:55 PM 37.4 °F 29.3 °F 32.0 °F 81% 30.19 in 8.0 mi SSE 12.7 mph - N/A   Clear
1:15 PM 39.2 °F 32.5 °F 33.8 °F 81% 30.17 in 9.0 mi SSE 10.4 mph 19.6 mph N/A   Clear
1:35 PM 39.2 °F 31.2 °F 32.0 °F 75% 30.16 in 8.0 mi SSE 13.8 mph - N/A   Clear
1:55 PM 39.2 °F 30.8 °F 32.0 °F 75% 30.15 in 9.0 mi SSE 15.0 mph 21.9 mph N/A   Clear
2:15 PM 39.2 °F 32.5 °F 32.0 °F 75% 30.15 in 9.0 mi SE 10.4 mph 19.6 mph N/A   Clear
2:35 PM 39.2 °F 32.0 °F 32.0 °F 75% 30.13 in 9.0 mi SSE 11.5 mph 20.7 mph N/A   Clear
2:55 PM 39.2 °F 31.2 °F 32.0 °F 75% 30.13 in 8.0 mi SSE 13.8 mph 21.9 mph N/A   Clear
3:15 PM 37.4 °F 30.3 °F 32.0 °F 81% 30.13 in 8.0 mi SE 10.4 mph 17.3 mph N/A   Clear
3:35 PM 37.4 °F 28.9 °F 32.0 °F 81% 30.13 in 8.0 mi SSE 13.8 mph - N/A   Clear
3:55 PM 37.4 °F 29.8 °F 32.0 °F 81% 30.11 in 8.0 mi SE 11.5 mph 18.4 mph N/A   Clear
4:15 PM 37.4 °F 30.8 °F 32.0 °F 81% 30.11 in 7.0 mi SE 9.2 mph 16.1 mph N/A   Clear
4:35 PM 35.6 °F 27.1 °F 32.0 °F 87% 30.10 in 8.0 mi SE 12.7 mph - N/A   Clear
4:55 PM 35.6 °F 27.5 °F 32.0 °F 87% 30.10 in 8.0 mi SE 11.5 mph 18.4 mph N/A   Clear
5:15 PM 35.6 °F 27.1 °F 30.2 °F 81% 30.09 in 10.0 mi SE 12.7 mph 23.0 mph N/A   Clear
5:35 PM 33.8 °F 24.8 °F 30.2 °F 87% 30.09 in 10.0 mi SE 12.7 mph 20.7 mph N/A   Clear
5:55 PM 33.8 °F 24.8 °F 30.2 °F 87% 30.08 in 10.0 mi SSE 12.7 mph 19.6 mph N/A   Clear
6:15 PM 33.8 °F 24.3 °F 30.2 °F 87% 30.09 in 9.0 mi SSE 13.8 mph 21.9 mph N/A   Clear
6:35 PM 33.8 °F 25.3 °F 30.2 °F 87% 30.09 in 8.0 mi SSE 11.5 mph 19.6 mph N/A   Clear
6:55 PM 33.8 °F 24.8 °F 30.2 °F 87% 30.08 in 7.0 mi SSE 12.7 mph 19.6 mph N/A   Clear
7:15 PM 33.8 °F 24.3 °F 30.2 °F 87% 30.08 in 6.0 mi SSE 13.8 mph 23.0 mph N/A   Clear
7:35 PM 33.8 °F 24.3 °F 30.2 °F 87% 30.08 in 6.0 mi SSE 13.8 mph - N/A   Clear
7:55 PM 33.8 °F 23.9 °F 30.2 °F 87% 30.07 in 6.0 mi SSE 15.0 mph - N/A   Partly Cloudy
8:15 PM 33.8 °F 25.3 °F 30.2 °F 87% 30.07 in 6.0 mi SSE 11.5 mph 20.7 mph N/A   Partly Cloudy
8:35 PM 33.8 °F 25.3 °F 30.2 °F 87% 30.07 in 6.0 mi SSE 11.5 mph 20.7 mph N/A   Partly Cloudy
8:55 PM 33.8 °F 24.8 °F 32.0 °F 93% 30.07 in 6.0 mi SSE 12.7 mph 19.6 mph N/A   Partly Cloudy
9:15 PM 33.8 °F 24.8 °F 32.0 °F 93% 30.07 in 7.0 mi SSE 12.7 mph 20.7 mph N/A   Partly Cloudy
9:35 PM 33.8 °F 24.8 °F 32.0 °F 93% 30.07 in 7.0 mi South 12.7 mph 21.9 mph N/A   Scattered Clouds
9:55 PM 35.6 °F 29.2 °F 32.0 °F 87% 30.08 in 8.0 mi South 8.1 mph 13.8 mph N/A   Partly Cloudy
10:15 PM 35.6 °F 28.6 °F 32.0 °F 87% 30.07 in 8.0 mi South 9.2 mph 16.1 mph N/A   Scattered Clouds
10:35 PM 35.6 °F 28.6 °F 32.0 °F 87% 30.08 in 8.0 mi South 9.2 mph - N/A   Partly Cloudy
10:55 PM 35.6 °F 28.0 °F 30.2 °F 81% 30.07 in 8.0 mi South 10.4 mph 17.3 mph N/A   Partly Cloudy
11:15 PM 35.6 °F 28.0 °F 30.2 °F 81% 30.06 in 8.0 mi South 10.4 mph 17.3 mph N/A   Partly Cloudy
11:35 PM 35.6 °F 28.6 °F 30.2 °F 81% 30.06 in 8.0 mi South 9.2 mph - N/A   Partly Cloudy
11:55 PM 35.6 °F 27.5 °F 32.0 °F 87% 30.05 in 7.0 mi South 11.5 mph - N/A   Partly Cloudy